Location: Lane
(33.5226°N, 79.8788°W)
Time: 08:34:53
(UTC+00:00)

Transit 2A Rocket - Pass Details

Date: 05 October 2022
Orbit: 589 x 911 km, 66.7° (Epoch: 04 December)

Event Time Altitude Azimuth Distance (km) Brightness Sun altitude
Exits shadow 10:39:01 - 231° (SW) 2,404 7.1 -8.7°
Reaches altitude 10° 10:40:18 10° 238° (WSW) 1,930 6.6 -8.4°
Maximum altitude 10:44:09 31° 301° (WNW) 1,035 5.3 -7.6°
Drops below altitude 10° 10:47:58 10° 5° (N) 1,922 7.2 -6.8°
Sets 10:50:26 0° 16° (NNE) 2,840 8.2 -6.3°
